TimeCDT,TemperatureF,Dew PointF,Humidity,Sea Level PressureIn,VisibilityMPH,Wind Direction,Wind SpeedMPH,Gust SpeedMPH,PrecipitationIn,Events,Conditions,WindDirDegrees,DateUTC
12:53 AM,39.9,30.0,68,30.05,10.0,NNW,4.6,-,N/A,,Partly Cloudy,330,2013-04-04 05:53:00
1:53 AM,36.0,30.9,82,30.07,10.0,NNE,12.7,-,N/A,,Clear,20,2013-04-04 06:53:00
2:53 AM,35.1,24.1,64,30.07,10.0,NNE,10.4,-,N/A,,Mostly Cloudy,30,2013-04-04 07:53:00
3:53 AM,30.9,23.0,72,30.08,10.0,North,8.1,-,N/A,,Clear,10,2013-04-04 08:53:00
4:53 AM,28.9,23.0,78,30.09,10.0,North,3.5,-,N/A,,Scattered Clouds,350,2013-04-04 09:53:00
5:53 AM,30.9,26.1,82,30.11,10.0,NNW,8.1,-,N/A,,Mostly Cloudy,340,2013-04-04 10:53:00
6:53 AM,30.0,27.0,88,30.14,10.0,North,6.9,-,N/A,,Clear,360,2013-04-04 11:53:00
7:53 AM,30.0,26.1,85,30.15,10.0,North,11.5,-,N/A,,Clear,350,2013-04-04 12:53:00
8:53 AM,33.1,27.0,78,30.18,10.0,NNW,16.1,21.9,N/A,,Clear,340,2013-04-04 13:53:00
9:53 AM,34.0,26.1,73,30.19,10.0,North,18.4,-,N/A,,Clear,360,2013-04-04 14:53:00
10:53 AM,36.0,27.0,70,30.19,10.0,North,15.0,-,N/A,,Clear,360,2013-04-04 15:53:00
11:53 AM,39.0,28.0,65,30.20,10.0,North,13.8,-,N/A,,Mostly Cloudy,10,2013-04-04 16:53:00
12:53 PM,39.0,25.0,57,30.22,10.0,NNE,16.1,-,N/A,,Clear,20,2013-04-04 17:53:00
1:53 PM,39.0,26.1,60,30.21,10.0,NNE,12.7,-,N/A,,Clear,30,2013-04-04 18:53:00
2:53 PM,37.9,26.1,62,30.22,10.0,North,12.7,-,N/A,,Mostly Cloudy,10,2013-04-04 19:53:00
3:53 PM,37.9,27.0,65,30.22,10.0,NNE,12.7,-,N/A,,Mostly Cloudy,20,2013-04-04 20:53:00
4:53 PM,36.0,26.1,67,30.23,10.0,NNE,15.0,-,N/A,,Overcast,20,2013-04-04 21:53:00
5:44 PM,35.6,26.6,70,30.18,10.0,NNE,12.7,-,N/A,,Mostly Cloudy,20,2013-04-04 22:44:00
5:53 PM,35.1,26.1,70,30.24,10.0,NNE,15.0,-,N/A,,Mostly Cloudy,20,2013-04-04 22:53:00
6:00 PM,35.6,26.6,70,30.18,10.0,NNE,11.5,-,N/A,,Mostly Cloudy,20,2013-04-04 23:00:00
6:53 PM,32.0,25.0,75,30.24,10.0,NNE,12.7,-,N/A,,Clear,30,2013-04-04 23:53:00
7:53 PM,30.0,24.1,79,30.25,10.0,NE,10.4,-,N/A,,Scattered Clouds,40,2013-04-05 00:53:00
8:53 PM,28.0,23.0,81,30.25,10.0,NNE,8.1,-,N/A,,Scattered Clouds,30,2013-04-05 01:53:00
9:53 PM,26.1,21.9,84,30.27,10.0,NNE,5.8,-,N/A,,Mostly Cloudy,20,2013-04-05 02:53:00
10:53 PM,24.1,21.0,88,30.28,10.0,North,5.8,-,N/A,,Clear,10,2013-04-05 03:53:00
11:53 PM,24.1,19.9,84,30.27,10.0,NNE,8.1,-,N/A,,Clear,30,2013-04-05 04:53:00